DFSSE EDDC-EDDF

Flight info

Callsign DFSSE
Flight time 0h 52m
Altitude 24000
Route ABKIS4W ABKIS Z715 NURGO T170 GAPLA T178 KERAX KERAX5A
Aircraft SF50/L-SDGRWY/L

Departure

Time 2026-04-16 22:02
Airport Dresden Airport (EDDC)

Arrival

Time 2026-04-16 22:55
Airport Frankfurt Main Airport (EDDF)
Time Latitude Longitude Altitude Speed Heading
2026-04-16 21:42 51.12344 13.75931 755 ft 0 kts 217°
2026-04-16 21:55 51.12343 13.75930 757 ft 1 kts 223°
2026-04-16 21:55 51.12360 13.75898 757 ft 5 kts 324°
2026-04-16 21:55 51.12386 13.75867 756 ft 6 kts 329°
2026-04-16 21:56 51.12438 13.75906 756 ft 12 kts 40°
2026-04-16 21:56 51.12520 13.76019 753 ft 19 kts 40°
2026-04-16 21:56 51.12626 13.76164 745 ft 19 kts 40°
2026-04-16 21:56 51.12722 13.76297 744 ft 17 kts 41°
2026-04-16 21:57 51.12801 13.76409 743 ft 13 kts 39°
2026-04-16 21:57 51.12864 13.76492 742 ft 12 kts 39°
2026-04-16 21:57 51.12941 13.76597 742 ft 17 kts 41°
2026-04-16 21:57 51.13040 13.76734 739 ft 22 kts 41°
2026-04-16 21:58 51.13166 13.76908 735 ft 26 kts 41°
2026-04-16 21:58 51.13303 13.77097 727 ft 25 kts 40°
2026-04-16 21:58 51.13431 13.77273 724 ft 23 kts 40°
2026-04-16 21:58 51.13544 13.77429 720 ft 21 kts 41°
2026-04-16 21:59 51.13649 13.77574 720 ft 19 kts 41°
2026-04-16 21:59 51.13764 13.77731 715 ft 22 kts 41°
2026-04-16 21:59 51.13873 13.77881 703 ft 20 kts 40°
2026-04-16 21:59 51.13967 13.78011 702 ft 15 kts 40°
2026-04-16 22:00 51.14039 13.78109 704 ft 13 kts 41°
2026-04-16 22:00 51.14097 13.78190 701 ft 9 kts 40°
2026-04-16 22:00 51.14156 13.78270 701 ft 16 kts 40°
2026-04-16 22:00 51.14236 13.78360 702 ft 10 kts
2026-04-16 22:01 51.14284 13.78324 700 ft 7 kts 311°
2026-04-16 22:01 51.14317 13.78262 699 ft 10 kts 310°
2026-04-16 22:01 51.14369 13.78162 699 ft 11 kts 296°
2026-04-16 22:01 51.14356 13.78068 698 ft 9 kts 223°
2026-04-16 22:02 51.14267 13.77942 708 ft 37 kts 221°
2026-04-16 22:02 51.13904 13.77443 718 ft 98 kts 220°
2026-04-16 22:02 51.13291 13.76591 966 ft 128 kts 221°
2026-04-16 22:02 51.12582 13.75609 1477 ft 144 kts 223°
2026-04-16 22:03 51.11816 13.74484 2060 ft 155 kts 223°
2026-04-16 22:03 51.11013 13.73315 2779 ft 158 kts 225°
2026-04-16 22:03 51.10224 13.72106 3519 ft 159 kts 225°
2026-04-16 22:03 51.09386 13.70915 4237 ft 162 kts 223°
2026-04-16 22:04 51.08516 13.69740 4966 ft 165 kts 223°
2026-04-16 22:04 51.07645 13.68565 5728 ft 165 kts 223°
2026-04-16 22:04 51.06764 13.67359 6409 ft 169 kts 225°
2026-04-16 22:04 51.05884 13.66125 7156 ft 167 kts 225°
2026-04-16 22:05 51.05017 13.64870 7804 ft 172 kts 226°
2026-04-16 22:05 51.04124 13.63591 8492 ft 173 kts 225°
2026-04-16 22:05 51.03213 13.62307 9099 ft 178 kts 224°
2026-04-16 22:05 51.02300 13.60994 9805 ft 174 kts 227°
2026-04-16 22:06 51.01445 13.59642 10473 ft 174 kts 228°
2026-04-16 22:06 50.99781 13.56827 11662 ft 174 kts 247°
2026-04-16 22:06 50.99482 13.54972 12176 ft 173 kts 267°
2026-04-16 22:07 50.99330 13.53131 12873 ft 164 kts 266°
2026-04-16 22:07 50.99185 13.51388 13471 ft 156 kts 265°
2026-04-16 22:07 50.98961 13.49645 13794 ft 166 kts 262°
2026-04-16 22:07 50.98698 13.47825 14150 ft 172 kts 261°
2026-04-16 22:08 50.98443 13.45938 14495 ft 177 kts 264°
2026-04-16 22:08 50.98216 13.43949 14761 ft 186 kts 264°
2026-04-16 22:08 50.97985 13.41934 15189 ft 186 kts 264°
2026-04-16 22:08 50.97757 13.39934 15578 ft 187 kts 264°
2026-04-16 22:09 50.97528 13.37901 15968 ft 188 kts 264°
2026-04-16 22:09 50.97295 13.35865 16364 ft 188 kts 264°
2026-04-16 22:09 50.97059 13.33814 16737 ft 189 kts 264°
2026-04-16 22:09 50.96823 13.31762 17100 ft 190 kts 264°
2026-04-16 22:10 50.96586 13.29696 17465 ft 190 kts 265°
2026-04-16 22:10 50.96347 13.27617 17816 ft 191 kts 265°
2026-04-16 22:10 50.96107 13.25534 18169 ft 192 kts 265°
2026-04-16 22:10 50.95864 13.23446 18513 ft 193 kts 265°
2026-04-16 22:11 50.95614 13.21351 18856 ft 194 kts 262°
2026-04-16 22:11 50.95266 13.19263 19173 ft 197 kts 261°
2026-04-16 22:11 50.94912 13.17197 19496 ft 197 kts 261°
2026-04-16 22:11 50.94550 13.15093 19817 ft 198 kts 261°
2026-04-16 22:12 50.94188 13.12983 20145 ft 199 kts 261°
2026-04-16 22:12 50.93826 13.10866 20461 ft 199 kts 261°
2026-04-16 22:12 50.93462 13.08743 20761 ft 201 kts 261°
2026-04-16 22:12 50.93091 13.06600 21069 ft 201 kts 261°
2026-04-16 22:13 50.92722 13.04461 21389 ft 201 kts 261°
2026-04-16 22:13 50.92352 13.02330 21717 ft 200 kts 261°
2026-04-16 22:13 50.91985 13.00211 22017 ft 200 kts 262°
2026-04-16 22:13 50.91618 12.98095 22328 ft 199 kts 262°
2026-04-16 22:14 50.91251 12.95982 22622 ft 199 kts 262°
2026-04-16 22:14 50.90886 12.93875 22934 ft 198 kts 262°
2026-04-16 22:14 50.90522 12.91773 23223 ft 198 kts 262°
2026-04-16 22:14 50.90156 12.89673 23540 ft 197 kts 262°
2026-04-16 22:15 50.89790 12.87582 23837 ft 196 kts 262°
2026-04-16 22:15 50.89426 12.85491 24135 ft 196 kts 262°
2026-04-16 22:15 50.89059 12.83375 24235 ft 205 kts 262°
2026-04-16 22:15 50.88671 12.81138 24249 ft 216 kts 262°
2026-04-16 22:16 50.88256 12.78784 24246 ft 225 kts 262°
2026-04-16 22:16 50.87829 12.76358 24249 ft 232 kts 261°
2026-04-16 22:16 50.87388 12.73860 24248 ft 239 kts 261°
2026-04-16 22:16 50.86942 12.71330 24250 ft 245 kts 261°
2026-04-16 22:17 50.86476 12.68669 24247 ft 251 kts 261°
2026-04-16 22:17 50.86006 12.66008 24248 ft 258 kts 261°
2026-04-16 22:17 50.85518 12.63244 24249 ft 263 kts 261°
2026-04-16 22:17 50.85019 12.60429 24245 ft 268 kts 261°
2026-04-16 22:18 50.84512 12.57563 24246 ft 272 kts 260°
2026-04-16 22:18 50.83996 12.54669 24249 ft 275 kts 260°
2026-04-16 22:18 50.83475 12.51743 24248 ft 278 kts 260°
2026-04-16 22:18 50.82949 12.48789 24248 ft 280 kts 260°
2026-04-16 22:19 50.82417 12.45810 24246 ft 282 kts 260°
2026-04-16 22:19 50.81882 12.42819 24249 ft 284 kts 260°
2026-04-16 22:19 50.81341 12.39801 24247 ft 285 kts 260°
2026-04-16 22:19 50.80799 12.36775 24247 ft 286 kts 260°
2026-04-16 22:20 50.80253 12.33736 24246 ft 288 kts 260°
2026-04-16 22:20 50.79706 12.30697 24247 ft 288 kts 260°
2026-04-16 22:20 50.79156 12.27653 24247 ft 288 kts 260°
2026-04-16 22:20 50.78608 12.24607 24248 ft 288 kts 260°
2026-04-16 22:21 50.78057 12.21565 24247 ft 288 kts 260°
2026-04-16 22:21 50.77506 12.18525 24246 ft 288 kts 260°
2026-04-16 22:21 50.76955 12.15488 24247 ft 287 kts 260°
2026-04-16 22:21 50.76403 12.12455 24246 ft 287 kts 260°
2026-04-16 22:22 50.75850 12.09417 24248 ft 287 kts 260°
2026-04-16 22:22 50.75298 12.06388 24248 ft 288 kts 260°
2026-04-16 22:22 50.74743 12.03352 24246 ft 287 kts 260°
2026-04-16 22:22 50.74187 12.00320 24246 ft 287 kts 260°
2026-04-16 22:23 50.73634 11.97293 24247 ft 287 kts 260°
2026-04-16 22:23 50.73078 11.94261 24247 ft 287 kts 260°
2026-04-16 22:23 50.72522 11.91239 24246 ft 287 kts 260°
2026-04-16 22:23 50.71965 11.88217 24247 ft 287 kts 259°
2026-04-16 22:24 50.71407 11.85190 24247 ft 287 kts 260°
2026-04-16 22:24 50.70855 11.82202 24247 ft 287 kts 259°
2026-04-16 22:24 50.70295 11.79178 24246 ft 287 kts 259°
2026-04-16 22:24 50.69733 11.76151 24247 ft 288 kts 259°
2026-04-16 22:25 50.69171 11.73129 24248 ft 287 kts 259°
2026-04-16 22:25 50.68608 11.70108 24248 ft 287 kts 259°
2026-04-16 22:25 50.68048 11.67091 24248 ft 287 kts 259°
2026-04-16 22:25 50.67482 11.64064 24248 ft 287 kts 259°
2026-04-16 22:26 50.66919 11.61048 24248 ft 287 kts 259°
2026-04-16 22:26 50.66354 11.58024 24248 ft 288 kts 259°
2026-04-16 22:26 50.65786 11.55001 24247 ft 288 kts 259°
2026-04-16 22:26 50.65218 11.51973 24247 ft 288 kts 259°
2026-04-16 22:27 50.64649 11.48945 24247 ft 288 kts 259°
2026-04-16 22:27 50.64079 11.45924 24247 ft 288 kts 259°
2026-04-16 22:27 50.63509 11.42907 24246 ft 287 kts 259°
2026-04-16 22:27 50.62938 11.39895 24246 ft 287 kts 259°
2026-04-16 22:28 50.62368 11.36881 24245 ft 288 kts 259°
2026-04-16 22:28 50.61797 11.33860 24246 ft 288 kts 259°
2026-04-16 22:28 50.61221 11.30829 24247 ft 289 kts 259°
2026-04-16 22:28 50.60644 11.27795 24248 ft 290 kts 259°
2026-04-16 22:29 50.60062 11.24748 24249 ft 291 kts 259°
2026-04-16 22:29 50.59481 11.21710 24250 ft 289 kts 259°
2026-04-16 22:29 50.58902 11.18682 24248 ft 288 kts 259°
2026-04-16 22:29 50.58327 11.15675 24248 ft 286 kts 259°
2026-04-16 22:30 50.57754 11.12681 24246 ft 286 kts 259°
2026-04-16 22:30 50.57279 11.09783 23944 ft 262 kts 269°
2026-04-16 22:30 50.57081 11.06946 24054 ft 263 kts 265°
2026-04-16 22:30 50.56460 11.04193 24151 ft 267 kts 255°
2026-04-16 22:31 50.55937 11.01458 24246 ft 264 kts 262°
2026-04-16 22:31 50.55496 10.98592 24245 ft 269 kts 261°
2026-04-16 22:31 50.54959 10.95775 24248 ft 274 kts 258°
2026-04-16 22:31 50.54358 10.92913 24252 ft 277 kts 258°
2026-04-16 22:32 50.53778 10.90007 24253 ft 280 kts 259°
2026-04-16 22:32 50.53396 10.88024 24255 ft 281 kts 259°
2026-04-16 22:32 50.52822 10.85076 24255 ft 283 kts 258°
2026-04-16 22:32 50.52232 10.82118 24251 ft 285 kts 258°
2026-04-16 22:33 50.51641 10.79141 24255 ft 286 kts 258°
2026-04-16 22:33 50.51051 10.76150 24256 ft 287 kts 258°
2026-04-16 22:33 50.50454 10.73145 24257 ft 289 kts 258°
2026-04-16 22:33 50.49853 10.70134 24258 ft 289 kts 258°
2026-04-16 22:34 50.49252 10.67115 24258 ft 289 kts 258°
2026-04-16 22:34 50.48652 10.64104 24258 ft 289 kts 258°
2026-04-16 22:34 50.48057 10.61132 24256 ft 289 kts 258°
2026-04-16 22:34 50.47449 10.58088 24256 ft 288 kts 258°
2026-04-16 22:35 50.46857 10.55127 24257 ft 289 kts 258°
2026-04-16 22:35 50.46253 10.52128 24256 ft 288 kts 258°
2026-04-16 22:35 50.45649 10.49124 24257 ft 289 kts 258°
2026-04-16 22:35 50.45044 10.46110 24256 ft 290 kts 258°
2026-04-16 22:36 50.44437 10.43096 24257 ft 290 kts 258°
2026-04-16 22:36 50.43823 10.40060 24078 ft 295 kts 258°
2026-04-16 22:36 50.43203 10.36992 23707 ft 294 kts 257°
2026-04-16 22:36 50.42582 10.33940 23320 ft 293 kts 257°
2026-04-16 22:37 50.41964 10.30899 22928 ft 293 kts 257°
2026-04-16 22:37 50.41347 10.27857 22538 ft 293 kts 257°
2026-04-16 22:37 50.40729 10.24813 22150 ft 294 kts 257°
2026-04-16 22:37 50.40105 10.21750 21758 ft 295 kts 257°
2026-04-16 22:38 50.39474 10.18675 21364 ft 297 kts 257°
2026-04-16 22:38 50.38843 10.15583 20969 ft 298 kts 256°
2026-04-16 22:38 50.38209 10.12479 20572 ft 300 kts 256°
2026-04-16 22:38 50.37571 10.09366 20172 ft 301 kts 256°
2026-04-16 22:39 50.36927 10.06244 19771 ft 302 kts 256°
2026-04-16 22:39 50.36283 10.03117 19372 ft 302 kts 256°
2026-04-16 22:39 50.35638 9.99980 18964 ft 303 kts 256°
2026-04-16 22:39 50.34989 9.96832 18565 ft 304 kts 255°
2026-04-16 22:40 50.34348 9.93673 18160 ft 305 kts 256°
2026-04-16 22:40 50.33687 9.90506 17753 ft 307 kts 255°
2026-04-16 22:40 50.33016 9.87329 17346 ft 309 kts 255°
2026-04-16 22:40 50.32353 9.84133 16932 ft 307 kts 255°
2026-04-16 22:41 50.31699 9.80975 16530 ft 304 kts 255°
2026-04-16 22:41 50.31046 9.77851 16125 ft 301 kts 254°
2026-04-16 22:41 50.30398 9.74744 15730 ft 300 kts 254°
2026-04-16 22:41 50.29750 9.71634 15337 ft 300 kts 254°
2026-04-16 22:42 50.29101 9.68536 14928 ft 299 kts 254°
2026-04-16 22:42 50.28457 9.65462 14527 ft 297 kts 253°
2026-04-16 22:42 50.27814 9.62396 14131 ft 296 kts 253°
2026-04-16 22:42 50.27171 9.59343 13740 ft 295 kts 253°
2026-04-16 22:43 50.26531 9.56311 13349 ft 293 kts 253°
2026-04-16 22:43 50.25897 9.53303 12962 ft 291 kts 253°
2026-04-16 22:43 50.25261 9.50297 12575 ft 290 kts 253°
2026-04-16 22:43 50.24630 9.47315 12189 ft 288 kts 252°
2026-04-16 22:44 50.24002 9.44351 11808 ft 287 kts 252°
2026-04-16 22:44 50.23372 9.41401 11430 ft 286 kts 251°
2026-04-16 22:44 50.22689 9.38490 11049 ft 285 kts 251°
2026-04-16 22:44 50.22031 9.35580 10668 ft 284 kts 251°
2026-04-16 22:45 50.21378 9.32718 10297 ft 282 kts 251°
2026-04-16 22:45 50.20703 9.29807 9920 ft 280 kts 251°
2026-04-16 22:45 50.20044 9.26955 9547 ft 280 kts 251°
2026-04-16 22:45 50.19394 9.24136 9183 ft 279 kts 251°
2026-04-16 22:46 50.18733 9.21286 8810 ft 279 kts 251°
2026-04-16 22:46 50.18074 9.18444 8442 ft 276 kts 251°
2026-04-16 22:46 50.17423 9.15642 8077 ft 274 kts 251°
2026-04-16 22:46 50.16774 9.12855 7712 ft 272 kts 251°
2026-04-16 22:47 50.16139 9.10122 7348 ft 271 kts 251°
2026-04-16 22:47 50.15491 9.07343 6790 ft 270 kts 251°
2026-04-16 22:47 50.14857 9.04631 6411 ft 260 kts 251°
2026-04-16 22:47 50.14263 9.02091 6069 ft 239 kts 251°
2026-04-16 22:48 50.13719 8.99762 5762 ft 219 kts 251°
2026-04-16 22:48 50.13211 8.97582 5479 ft 210 kts 251°
2026-04-16 22:48 50.12712 8.95458 5205 ft 208 kts 251°
2026-04-16 22:48 50.12215 8.93332 4932 ft 209 kts 251°
2026-04-16 22:49 50.11714 8.91198 4655 ft 210 kts 251°
2026-04-16 22:49 50.11208 8.89050 4367 ft 211 kts 251°
2026-04-16 22:49 50.10708 8.86911 4110 ft 209 kts 251°
2026-04-16 22:49 50.10229 8.84776 3834 ft 209 kts 251°
2026-04-16 22:50 50.09720 8.82661 3559 ft 208 kts 250°
2026-04-16 22:50 50.09225 8.80587 3291 ft 198 kts 251°
2026-04-16 22:50 50.08772 8.78657 3035 ft 184 kts 250°
2026-04-16 22:50 50.08328 8.76826 2791 ft 180 kts 251°
2026-04-16 22:51 50.07910 8.75012 2562 ft 177 kts 249°
2026-04-16 22:51 50.07477 8.73257 2343 ft 166 kts 249°
2026-04-16 22:51 50.07107 8.71649 2120 ft 152 kts 249°
2026-04-16 22:51 50.06739 8.70150 1921 ft 145 kts 248°
2026-04-16 22:52 50.06405 8.68702 1732 ft 139 kts 249°
2026-04-16 22:52 50.06065 8.67325 1552 ft 135 kts 251°
2026-04-16 22:52 50.05754 8.65970 1377 ft 130 kts 250°
2026-04-16 22:52 50.05437 8.64690 1207 ft 124 kts 251°
2026-04-16 22:53 50.05160 8.63447 1065 ft 118 kts 252°
2026-04-16 22:53 50.04861 8.62277 905 ft 116 kts 247°
2026-04-16 22:53 50.04576 8.61144 755 ft 112 kts 253°
2026-04-16 22:53 50.04318 8.59979 573 ft 112 kts 251°
2026-04-16 22:54 50.04060 8.58869 449 ft 106 kts 250°
2026-04-16 22:54 50.03809 8.57828 367 ft 96 kts 250°
2026-04-16 22:54 50.03595 8.56935 350 ft 81 kts 250°
2026-04-16 22:54 50.03419 8.56190 348 ft 69 kts 249°
2026-04-16 22:55 50.03302 8.55737 336 ft 31 kts 242°
2026-04-16 22:55 50.03178 8.55504 335 ft 25 kts 221°
2026-04-16 22:55 50.03084 8.55390 336 ft 13 kts 225°
2026-04-16 22:55 50.03021 8.55295 334 ft 12 kts 230°
2026-04-16 22:56 50.02981 8.55168 335 ft 14 kts 250°
2026-04-16 22:56 50.02934 8.54969 334 ft 28 kts 249°
2026-04-16 22:56 50.02860 8.54662 333 ft 33 kts 250°
2026-04-16 22:56 50.02781 8.54332 332 ft 31 kts 250°
2026-04-16 22:57 50.02712 8.54040 328 ft 27 kts 249°
2026-04-16 22:57 50.02651 8.53785 327 ft 23 kts 248°
2026-04-16 22:57 50.02556 8.53637 330 ft 17 kts 217°
2026-04-16 22:57 50.02501 8.53506 329 ft 17 kts 249°
2026-04-16 22:58 50.02441 8.53254 329 ft 30 kts 250°
2026-04-16 22:58 50.02372 8.52967 328 ft 26 kts 249°
2026-04-16 22:58 50.02351 8.52884 329 ft 0 kts 248°
2026-04-16 22:58 50.02351 8.52883 329 ft 0 kts 248°
2026-04-16 22:59 50.02286 8.52611 329 ft 58 kts 251°
2026-04-16 22:59 50.02413 8.51794 438 ft 91 kts 271°
2026-04-16 22:59 50.01933 8.51636 598 ft 109 kts 111°
2026-04-16 22:59 50.02288 8.52689 459 ft 130 kts 51°
2026-04-16 23:00 50.02561 8.53824 478 ft 106 kts 65°
2026-04-16 23:00 50.03102 8.54182 434 ft 95 kts 311°
2026-04-16 23:00 50.02961 8.53299 394 ft 92 kts 210°
2026-04-16 23:00 50.02405 8.52925 364 ft 97 kts 207°
2026-04-16 23:01 50.01809 8.52519 585 ft 95 kts 245°
2026-04-16 23:01 50.02190 8.52017 757 ft 99 kts 19°
2026-04-16 23:01 50.02878 8.52364 551 ft 100 kts 51°
2026-04-16 23:01 50.02446 8.52852 586 ft 116 kts 193°
2026-04-16 23:02 50.01530 8.52555 764 ft 144 kts 192°
2026-04-16 23:02 50.00566 8.52103 1051 ft 154 kts 204°
2026-04-16 23:02 49.99644 8.51696 1144 ft 122 kts 145°
2026-04-16 23:02 49.99676 8.52696 778 ft 111 kts 38°
2026-04-16 23:03 50.00430 8.52844 349 ft 100 kts
2026-04-16 23:03 50.01009 8.52837 329 ft 69 kts 359°
2026-04-16 23:03 50.01424 8.52837 327 ft 51 kts 360°
2026-04-16 23:03 50.01733 8.52836 328 ft 39 kts 359°
2026-04-16 23:04 50.01996 8.52833 327 ft 35 kts
2026-04-16 23:04 50.02147 8.52883 329 ft 17 kts 86°
2026-04-16 23:04 50.02155 8.53044 329 ft 13 kts 76°
2026-04-16 23:04 50.02209 8.53134 327 ft 11 kts 69°
2026-04-16 23:05 50.02231 8.53224 328 ft 7 kts 70°
2026-04-16 23:05 50.02288 8.53367 328 ft 19 kts 42°
2026-04-16 23:05 50.02318 8.53446 328 ft 6 kts 204°
2026-04-16 23:05 50.02313 8.53438 326 ft 4 kts 249°
2026-04-16 23:06 50.02219 8.53084 329 ft 65 kts 250°